This is the latest recevied weather packets stored in our database for station/object K5KVN. If no packets are shown the sender has not sent any weather packets the latest 10 day(s).
| Time | Temp. | Humidity | Pressure | Rain* | Wind** | Luminosity | Snow |
|---|---|---|---|---|---|---|---|
| 1777607718 | 10° C | 87% | 1018.5 hPa | 0 mm | - | - | - |
| 1777607114 | 10° C | 86% | 1018.5 hPa | 0 mm | - | - | - |
| 1777606513 | 10° C | 85% | 1018.6 hPa | 0 mm | - | - | - |
| 1777605915 | 10.56° C | 84% | 1018.5 hPa | 0 mm | - | - | - |
| 1777605315 | 10.56° C | 84% | 1018.4 hPa | 0 mm | - | - | - |
| 1777604715 | 10.56° C | 82% | 1018.3 hPa | 0 mm | - | - | - |
| 1777604114 | 11.11° C | 80% | 1018.2 hPa | 0 mm | - | - | - |
| 1777603513 | 11.11° C | 79% | 1018 hPa | 0 mm | - | - | - |
| 1777602914 | 11.67° C | 78% | 1017.9 hPa | 0 mm | - | - | - |
| 1777602313 | 11.67° C | 77% | 1017.8 hPa | 0 mm | - | - | - |
| 1777601773 | 12.22° C | 76% | 1017.4 hPa | 0 mm | - | - | - |
| 1777601113 | 12.22° C | 77% | 1017.4 hPa | 0 mm | - | - | - |
| 1777600512 | 12.78° C | 73% | 1017.3 hPa | 0 mm | - | - | - |
| 1777599913 | 12.78° C | 72% | 1017.3 hPa | 0 mm | - | - | - |
| 1777599315 | 13.33° C | 73% | 1017.2 hPa | 0 mm | - | - | - |
| 1777598713 | 13.89° C | 69% | 1017.1 hPa | 0 mm | - | - | - |
| 1777598113 | 14.44° C | 66% | 1017 hPa | 0 mm | - | - | - |
| 1777597514 | 15° C | 65% | 1016.9 hPa | 0 mm | - | - | - |
| 1777596911 | 15° C | 64% | 1016.7 hPa | 0 mm | - | - | - |
| 1777596377 | 15.56° C | 64% | 1016.6 hPa | 0 mm | - | - | - |
| 1777595769 | 16.11° C | 64% | 1016.6 hPa | 0 mm | - | - | - |
| 1777595169 | 16.67° C | 62% | 1016.6 hPa | 0 mm | - | - | - |
| 1777594510 | 16.67° C | 60% | 1016.7 hPa | 0 mm | - | - | - |
| 1777593910 | 16.67° C | 52% | 1016.5 hPa | 0 mm | - | - | - |
| 1777593370 | 16.67° C | 51% | 1016.5 hPa | 0 mm | - | - | - |
* Rain latest hour (hover to see other rain measurements)
** Current wind speed in m/s (hover to see current wind gust speed)